Regional Weather Roundup
Issued by NWS

Home | Current Version | Previous Version | Graphics & Text | Print | Product List | Glossary Off
Versions: 1 2 3 4 5 6 7 8 9 10 11 12 13 14 15 16 17 18 19 20 21 22 23 24 25 26 27 28 29 30 31 32 33 34 35 36 37 38 39 40 41 42 43 44 45 46 47 48 49 50

000
ASUS43 KMKX 060311
RWRWI

WISCONSIN REGIONAL WEATHER ROUNDUP
NATIONAL WEATHER SERVICE MILWAUKEE/SULLIVAN WI
900 PM CST FRI FEB 05 2016

NOTE: "FAIR" INDICATES FEW OR NO CLOUDS BELOW 12,000 FEET WITH NO
SIGNIFICANT WEATHER AND/OR OBSTRUCTIONS TO VISIBILITY.

WIZ001-002-006>008-014>016-023>028-060400-
NORTHWEST WISCONSIN

CITY           SKY/WX    TMP DP  RH WIND       PRES   REMARKS
SUPERIOR ARPT  CLOUDY    26  16  65 SW7       30.14S WCI  19
ASHLAND        CLOUDY    25  13  60 SW10G18   30.13F WCI  15
HAYWARD        CLOUDY    22  12  65 SW6       30.14S WCI  14
SIREN          CLOUDY    24  17  72 SW8       30.15F WCI  16
CUMBERLAND     CLOUDY    23  16  74 SW12      30.15F WCI  12
RICE LAKE      CLOUDY    23  15  73 S7        30.18F WCI  14
CHETEK         CLOUDY    22  15  74 SW9       30.19S WCI  12
LADYSMITH      FLURRIES  21  14  73 S7        30.19S WCI  13
EAU CLAIRE     FLURRIES  22  14  71 MISG      30.21S
MENOMONIE      CLOUDY    24  17  72 S8        30.21F WCI  16
NEW RICHMOND   CLOUDY    23  18  80 S9        30.18F WCI  13
OSCEOLA        CLOUDY    25  20  81 S8        30.20F WCI  16
$$

WIZ003>005-009-010-017-018-060400-
NORTH CENTRAL WISCONSIN

CITY           SKY/WX    TMP DP  RH WIND       PRES   REMARKS
MANITOWISH WTR CLOUDY    21  10  62 SW12G20   30.10F WCI   9
ARBOR VITAE    CLOUDY    22  13  69 SW9       30.12F WCI  11
WOODRUFF       CLOUDY    22  13  69 SW9       30.12F WCI  11
RHINELANDER    CLOUDY    21  12  68 SW13      30.14F WCI   9
EAGLE RIVER    CLOUDY    21  10  62 SW10      30.11F WCI  10
LAND O LAKES   CLOUDY    23   9  55 SW10G18   30.10F WCI  12
PHILLIPS       CLOUDY    20  12  71 SW8       30.14F WCI  11
TOMAHAWK       CLOUDY    19  12  74 S3        30.17F
MEDFORD        CLOUDY    20  14  77 S9        30.17F WCI   9
MERRILL        CLOUDY    20  14  78 SW5       30.19F WCI  14
$$

WIZ029-030-035-036-043>047-060400-
CENTRAL WISCONSIN

CITY           SKY/WX    TMP DP  RH WIND       PRES   REMARKS
WAUSAU         CLOUDY    22  13  68 SW7       30.19S WCI  13
MOSINEE        MOCLDY    19  16  86 S6        30.22S WCI  11
MARSHFIELD     CLOUDY    21  12  68 SW8       30.20S WCI  11
STEVENS POINT  CLOUDY    19  14  79 SW5       30.23S WCI  13
WAUPACA        CLOUDY    22  17  81 S3        30.25F
WAUTOMA        CLOUDY    25  18  74 S7        30.26F WCI  17
WISC RAPIDS    CLOUDY    22  14  71 SW5       30.24F WCI  16
CAMP DOUGLAS   CLOUDY    24  20  87 S5        30.24F WCI  18
$$

WIZ011>013-019>022-031-037>040-048>050-060400-
NORTHEAST WISCONSIN

CITY           SKY/WX    TMP DP  RH WIND       PRES   REMARKS
ANTIGO         CLOUDY    17  11  78 SW3       30.18S
SHAWANO        CLOUDY    24  16  70 CALM      30.24F
OCONTO         CLOUDY    14  13  97 S3        30.25F
STURGEON BAY   CLOUDY    18  10  73 S7        30.26F WCI   8
GREEN BAY      CLOUDY    22  16  78 S7        30.26F WCI  13
MANITOWOC      CLOUDY    24  17  74 SW7       30.28F WCI  16
APPLETON       CLOUDY    21  16  79 S8        30.23F WCI  12
CLINTONVILLE   CLOUDY    19  12  73 S3        30.24F
OSHKOSH        CLOUDY    22  15  75 S8        30.26F WCI  12
$$

WIZ032>034-041-042-053>061-060400-
SOUTHWEST WISCONSIN

CITY           SKY/WX    TMP DP  RH WIND       PRES   REMARKS
LA CROSSE      CLOUDY    24  15  68 S8        30.25F WCI  15
SPARTA         CLOUDY    24  15  69 SW3       30.26F
VIROQUA        MOCLDY    22  15  76 S10       30.23F WCI  11
BOSCOBEL       CLOUDY    26  18  71 CALM      30.30F
PRAIRIE DU CHI MIX PCPN  26  17  68 CALM      30.30F
PLATTEVILLE    PTCLDY    26  21  81 S5        30.29S WCI  21
$$

WIZ056-057-062-063-064-067-068-060400-
SOUTH CENTRAL WISCONSIN

CITY           SKY/WX    TMP DP  RH WIND       PRES   REMARKS
REEDSBURG      CLOUDY    24  17  74 S5        30.27F WCI  18
BARABOO/DELLS  CLOUDY    24  16  71 SW5       30.26F WCI  18
LONE ROCK      CLOUDY    23  17  78 CALM      30.30F
MINERAL POINT  CLOUDY    28  21  74 CALM      30.27F
MADISON        CLOUDY    27  17  66 S5        30.29F WCI  22
MIDDLETON      CLOUDY    28  19  71 SW5       30.29F WCI  22
WATERTOWN      CLOUDY    26  20  77 S3        30.29F
MONROE         MOCLDY    28  25  86 SW6       30.28F WCI  22
JANESVILLE     CLOUDY    30  21  69 SW5       30.30F WCI  25
$$

WIZ051-052-058>065-066-070>072-060400-
SOUTHEAST WISCONSIN

CITY           SKY/WX    TMP DP  RH WIND       PRES   REMARKS
MILWAUKEE      CLOUDY    29  17  61 W6        30.31S WCI  23
WAUKESHA       CLOUDY    27  18  69 CALM      30.31S
MILWAUKEE/TIMM CLOUDY    28  18  64 SW6       30.31F WCI  22
RACINE         CLOUDY    29  19  66 W5        30.33S WCI  24
BURLINGTON     CLOUDY    25  19  78 SW3       30.31F
KENOSHA        CLOUDY    28  20  71 SW6       30.32S WCI  22
FOND DU LAC    CLOUDY    24  15  68 S6        30.27F WCI  17
SHEBOYGAN      CLOUDY    24  16  71 SW6       30.28F WCI  17
WEST BEND      CLOUDY    25  18  74 CALM      30.28F
JUNEAU         CLOUDY    24  18  76 S7        30.29F WCI  16
$$

LSZ147-162-060400-
LAKE SUPERIOR

STATION/POSITION TIME  TEMP    WIND        PRES    WAVE
                       AIR SEA DIR/SP/G            HT/PER
                 (UTC) (F)     (DEG/KT/KT) (MB)    (FT/S)
DEVILS ISLAND    0300   29     240/ 25/ 31 1020.1F
PORT WING        0300   27     220/  7/ 16   N/A
SAXON HARBOR     0200   27                 1019.6
$$

LMZ867-665-643>646-060400-
LAKE MICHIGAN

STATION/POSITION TIME  TEMP    WIND        PRES    WAVE
                       AIR SEA DIR/SP/G            HT/PER
                 (UTC) (F)     (DEG/KT/KT) (MB)    (FT/S)
CHAMBERS ISLAND  0200   22     180/  7/ 11 1024.0F
ALGOMA LAKESHORE 0241          250/  5/  7   N/A
KEWAUNEE LAKESHO 0200   22     310/  5/  8 1024.4F
SHEBOYGAN LAKESH 0300   26     230/  7/  8 1026.8F
PORT WASHINGTON  0200   27     240/  3/  4 1027.1
MILWAUKEE LAKESH 0210   30     260/  7/ 10   N/A
KENOSHA   LAKESH 0300   29     250/  5/  9 1026.8S
$$

TC  - TEMPERATURE IN CELSIUS
VSB - VISIBILITY IN STATUTE MILES
WCI - WIND CHILL INDEX
HX  - HEAT INDEX




USA.gov is the U.S. government's official web portal to all federal, state and local government web resources and services.